EZY38MB EGGD-EGNS

Flight info

Callsign EZY38MB
Flight time 0h 53m
Altitude 24000
Route BCN1Z BCN P69 DIZIM N864 WAL M146 LUSOD DCT IOM DCT
Aircraft A320/M-SDE3FGHIRWY/LB1

Departure

Time 2026-04-20 21:09
Airport Bristol Airport (EGGD)

Arrival

Time 2026-04-20 22:02
Airport Isle of Man Airport (EGNS)
Time Latitude Longitude Altitude Speed Heading
2026-04-20 20:39 51.38550 -2.70348 601 ft 0 kts 356°
2026-04-20 20:59 51.38537 -2.70347 601 ft 4 kts 356°
2026-04-20 20:59 51.38515 -2.70345 602 ft 4 kts 354°
2026-04-20 21:00 51.38491 -2.70333 602 ft 4 kts 316°
2026-04-20 21:00 51.38479 -2.70299 603 ft 4 kts 270°
2026-04-20 21:00 51.38479 -2.70309 603 ft 4 kts 266°
2026-04-20 21:00 51.38477 -2.70352 613 ft 4 kts 266°
2026-04-20 21:01 51.38475 -2.70396 604 ft 4 kts 266°
2026-04-20 21:01 51.38474 -2.70424 605 ft 0 kts 266°
2026-04-20 21:03 51.38474 -2.70426 605 ft 2 kts 266°
2026-04-20 21:03 51.38473 -2.70525 608 ft 16 kts 272°
2026-04-20 21:04 51.38471 -2.70742 611 ft 20 kts 267°
2026-04-20 21:04 51.38463 -2.70943 614 ft 16 kts 266°
2026-04-20 21:04 51.38457 -2.71102 616 ft 13 kts 266°
2026-04-20 21:04 51.38452 -2.71223 625 ft 9 kts 266°
2026-04-20 21:05 51.38450 -2.71286 618 ft 9 kts 266°
2026-04-20 21:05 51.38446 -2.71396 614 ft 12 kts 266°
2026-04-20 21:05 51.38440 -2.71550 620 ft 15 kts 266°
2026-04-20 21:05 51.38429 -2.71812 605 ft 21 kts 268°
2026-04-20 21:06 51.38430 -2.71981 606 ft 24 kts 271°
2026-04-20 21:06 51.38422 -2.72256 612 ft 26 kts 266°
2026-04-20 21:06 51.38411 -2.72553 622 ft 28 kts 266°
2026-04-20 21:06 51.38398 -2.72879 615 ft 30 kts 266°
2026-04-20 21:07 51.38387 -2.73184 615 ft 17 kts 266°
2026-04-20 21:07 51.38347 -2.73319 622 ft 10 kts 214°
2026-04-20 21:07 51.38295 -2.73340 618 ft 2 kts 176°
2026-04-20 21:07 51.38236 -2.73330 630 ft 11 kts 175°
2026-04-20 21:08 51.38214 -2.73289 625 ft 0 kts 84°
2026-04-20 21:08 51.38214 -2.73287 625 ft 1 kts 85°
2026-04-20 21:08 51.38220 -2.73128 628 ft 44 kts 87°
2026-04-20 21:09 51.38254 -2.72239 630 ft 113 kts 87°
2026-04-20 21:09 51.38323 -2.70700 703 ft 155 kts 85°
2026-04-20 21:09 51.38380 -2.68952 1288 ft 163 kts 87°
2026-04-20 21:09 51.38436 -2.67023 1748 ft 185 kts 87°
2026-04-20 21:10 51.38499 -2.64852 2154 ft 205 kts 87°
2026-04-20 21:10 51.38571 -2.62468 2667 ft 226 kts 87°
2026-04-20 21:10 51.38651 -2.59844 3391 ft 238 kts 87°
2026-04-20 21:10 51.38794 -2.57167 4217 ft 245 kts 76°
2026-04-20 21:11 51.39683 -2.54839 5071 ft 254 kts 40°
2026-04-20 21:11 51.41321 -2.53776 5940 ft 263 kts
2026-04-20 21:11 51.43107 -2.54450 6850 ft 271 kts 330°
2026-04-20 21:11 51.44483 -2.56489 7742 ft 276 kts 311°
2026-04-20 21:12 51.45590 -2.59016 8676 ft 278 kts 303°
2026-04-20 21:12 51.46577 -2.61684 9594 ft 279 kts 301°
2026-04-20 21:12 51.47546 -2.64397 10499 ft 280 kts 301°
2026-04-20 21:12 51.48572 -2.67193 10820 ft 302 kts 302°
2026-04-20 21:13 51.49714 -2.70170 11156 ft 321 kts 303°
2026-04-20 21:13 51.50922 -2.73217 11879 ft 325 kts 303°
2026-04-20 21:13 51.52156 -2.76262 12677 ft 327 kts 303°
2026-04-20 21:13 51.53414 -2.79323 13435 ft 330 kts 303°
2026-04-20 21:14 51.54689 -2.82407 14246 ft 333 kts 303°
2026-04-20 21:14 51.55977 -2.85530 14941 ft 335 kts 303°
2026-04-20 21:14 51.57263 -2.88658 15645 ft 337 kts 303°
2026-04-20 21:14 51.58558 -2.91820 16352 ft 338 kts 303°
2026-04-20 21:15 51.59851 -2.94987 17053 ft 340 kts 303°
2026-04-20 21:15 51.61148 -2.98175 17748 ft 341 kts 303°
2026-04-20 21:15 51.62449 -3.01370 18432 ft 343 kts 303°
2026-04-20 21:15 51.63766 -3.04598 19048 ft 345 kts 303°
2026-04-20 21:16 51.65079 -3.07821 19624 ft 346 kts 302°
2026-04-20 21:16 51.66409 -3.11094 20235 ft 348 kts 302°
2026-04-20 21:16 51.67731 -3.14352 20844 ft 349 kts 302°
2026-04-20 21:16 51.69062 -3.17641 21447 ft 350 kts 302°
2026-04-20 21:17 51.70612 -3.20751 22039 ft 355 kts 314°
2026-04-20 21:17 51.72586 -3.23106 22596 ft 362 kts 327°
2026-04-20 21:17 51.74961 -3.24597 23168 ft 372 kts 342°
2026-04-20 21:17 51.77572 -3.25003 23742 ft 385 kts 356°
2026-04-20 21:18 51.80265 -3.24449 24184 ft 392 kts
2026-04-20 21:18 51.82962 -3.23780 24307 ft 391 kts
2026-04-20 21:18 51.85621 -3.23104 24339 ft 384 kts
2026-04-20 21:18 51.88244 -3.22436 24333 ft 381 kts
2026-04-20 21:19 51.90890 -3.21774 24329 ft 380 kts
2026-04-20 21:19 51.93471 -3.21135 24326 ft 379 kts
2026-04-20 21:19 51.96078 -3.20495 24324 ft 379 kts
2026-04-20 21:20 52.01334 -3.19210 24326 ft 379 kts
2026-04-20 21:20 52.03949 -3.18595 24300 ft 376 kts 358°
2026-04-20 21:20 52.06542 -3.18364 24306 ft 373 kts 355°
2026-04-20 21:20 52.09129 -3.18172 24305 ft 373 kts 355°
2026-04-20 21:21 52.11716 -3.17972 24305 ft 373 kts 355°
2026-04-20 21:21 52.14313 -3.17765 24303 ft 373 kts 355°
2026-04-20 21:21 52.16895 -3.17557 24304 ft 373 kts 355°
2026-04-20 21:21 52.19491 -3.17352 24304 ft 373 kts 355°
2026-04-20 21:22 52.22044 -3.17157 24301 ft 373 kts 355°
2026-04-20 21:22 52.24673 -3.16957 24333 ft 373 kts 355°
2026-04-20 21:22 52.27229 -3.16759 24329 ft 373 kts 356°
2026-04-20 21:22 52.29817 -3.16555 24327 ft 373 kts 356°
2026-04-20 21:23 52.32410 -3.16349 24326 ft 373 kts 356°
2026-04-20 21:23 52.35000 -3.16143 24325 ft 372 kts 356°
2026-04-20 21:23 52.37585 -3.15943 24324 ft 372 kts 355°
2026-04-20 21:23 52.40174 -3.15748 24323 ft 372 kts 355°
2026-04-20 21:24 52.42762 -3.15553 24318 ft 372 kts 355°
2026-04-20 21:24 52.45346 -3.15356 24319 ft 372 kts 356°
2026-04-20 21:24 52.47938 -3.15154 24324 ft 372 kts 356°
2026-04-20 21:24 52.50520 -3.14947 24329 ft 373 kts 358°
2026-04-20 21:25 52.53116 -3.14743 24317 ft 374 kts 358°
2026-04-20 21:25 52.55715 -3.14539 24311 ft 374 kts 358°
2026-04-20 21:25 52.58318 -3.14332 24309 ft 375 kts 358°
2026-04-20 21:25 52.60921 -3.14127 24308 ft 375 kts 358°
2026-04-20 21:26 52.63530 -3.13927 24314 ft 375 kts 358°
2026-04-20 21:26 52.66139 -3.13728 24313 ft 375 kts 358°
2026-04-20 21:26 52.68752 -3.13524 24313 ft 375 kts 358°
2026-04-20 21:26 52.71359 -3.13360 24312 ft 374 kts 354°
2026-04-20 21:27 52.73934 -3.13756 24322 ft 370 kts 348°
2026-04-20 21:27 52.74949 -3.13998 24317 ft 371 kts 348°
2026-04-20 21:27 52.77468 -3.14631 24311 ft 372 kts 348°
2026-04-20 21:27 52.80027 -3.15251 24303 ft 372 kts 349°
2026-04-20 21:28 52.82593 -3.15851 24308 ft 373 kts 349°
2026-04-20 21:28 52.85166 -3.16444 24309 ft 374 kts 349°
2026-04-20 21:28 52.87746 -3.17041 24310 ft 374 kts 349°
2026-04-20 21:28 52.90349 -3.17321 24310 ft 377 kts 358°
2026-04-20 21:29 52.92978 -3.17119 24310 ft 378 kts 359°
2026-04-20 21:29 52.95601 -3.16910 24312 ft 378 kts 359°
2026-04-20 21:29 52.98236 -3.16702 24323 ft 379 kts 360°
2026-04-20 21:29 53.00873 -3.16497 24323 ft 379 kts 360°
2026-04-20 21:30 53.03475 -3.16293 24318 ft 379 kts
2026-04-20 21:30 53.06151 -3.16081 24317 ft 380 kts
2026-04-20 21:30 53.08753 -3.15871 24316 ft 380 kts
2026-04-20 21:30 53.11404 -3.15657 24316 ft 380 kts
2026-04-20 21:31 53.14033 -3.15445 24319 ft 380 kts
2026-04-20 21:31 53.16715 -3.15229 24319 ft 380 kts
2026-04-20 21:31 53.19320 -3.15023 24320 ft 380 kts 360°
2026-04-20 21:31 53.21965 -3.14814 24323 ft 381 kts
2026-04-20 21:32 53.24611 -3.14600 24322 ft 381 kts
2026-04-20 21:32 53.27030 -3.14406 24322 ft 381 kts
2026-04-20 21:32 53.27140 -3.14397 24322 ft 381 kts
2026-04-20 21:32 53.29852 -3.14179 24322 ft 381 kts
2026-04-20 21:33 53.32507 -3.13967 24341 ft 381 kts
2026-04-20 21:33 53.35146 -3.13956 24341 ft 379 kts 352°
2026-04-20 21:33 53.37725 -3.14791 24340 ft 376 kts 340°
2026-04-20 21:33 53.40124 -3.16460 24340 ft 373 kts 329°
2026-04-20 21:34 53.42267 -3.18852 24208 ft 367 kts 319°
2026-04-20 21:34 53.44083 -3.21764 23966 ft 357 kts 313°
2026-04-20 21:34 53.45816 -3.24726 23690 ft 354 kts 314°
2026-04-20 21:34 53.47541 -3.27668 23405 ft 352 kts 314°
2026-04-20 21:35 53.49250 -3.30581 23101 ft 347 kts 314°
2026-04-20 21:35 53.50930 -3.33448 22691 ft 342 kts 314°
2026-04-20 21:35 53.52594 -3.36292 22261 ft 339 kts 314°
2026-04-20 21:35 53.54237 -3.39106 21835 ft 336 kts 314°
2026-04-20 21:36 53.55864 -3.41901 21407 ft 333 kts 314°
2026-04-20 21:36 53.57475 -3.44692 20953 ft 331 kts 311°
2026-04-20 21:36 53.58878 -3.47756 20510 ft 330 kts 305°
2026-04-20 21:36 53.60201 -3.50905 20071 ft 329 kts 305°
2026-04-20 21:37 53.61519 -3.54040 19635 ft 328 kts 305°
2026-04-20 21:37 53.62818 -3.57136 19212 ft 327 kts 305°
2026-04-20 21:37 53.64134 -3.60273 18771 ft 327 kts 306°
2026-04-20 21:37 53.65447 -3.63399 18314 ft 327 kts 306°
2026-04-20 21:38 53.66761 -3.66530 17880 ft 326 kts 306°
2026-04-20 21:38 53.68067 -3.69646 17462 ft 324 kts 306°
2026-04-20 21:38 53.69363 -3.72747 17046 ft 323 kts 306°
2026-04-20 21:38 53.70655 -3.75837 16627 ft 321 kts 305°
2026-04-20 21:39 53.71940 -3.78919 16218 ft 321 kts 305°
2026-04-20 21:39 53.73220 -3.81994 15810 ft 320 kts 306°
2026-04-20 21:39 53.74497 -3.85067 15397 ft 320 kts 306°
2026-04-20 21:39 53.75774 -3.88143 14992 ft 319 kts 306°
2026-04-20 21:40 53.77047 -3.91219 14588 ft 319 kts 305°
2026-04-20 21:40 53.78317 -3.94287 14180 ft 319 kts 306°
2026-04-20 21:40 53.79586 -3.97361 13724 ft 318 kts 306°
2026-04-20 21:40 53.80847 -4.00425 13305 ft 317 kts 305°
2026-04-20 21:41 53.82103 -4.03475 12880 ft 315 kts 305°
2026-04-20 21:41 53.83354 -4.06506 12479 ft 313 kts 305°
2026-04-20 21:41 53.84602 -4.09528 12061 ft 312 kts 305°
2026-04-20 21:41 53.85841 -4.12532 11647 ft 311 kts 305°
2026-04-20 21:42 53.87072 -4.15523 11225 ft 310 kts 305°
2026-04-20 21:42 53.88299 -4.18512 10810 ft 309 kts 304°
2026-04-20 21:42 53.89522 -4.21499 10460 ft 305 kts 304°
2026-04-20 21:42 53.90711 -4.24411 10301 ft 295 kts 304°
2026-04-20 21:43 53.91866 -4.27249 10116 ft 292 kts 304°
2026-04-20 21:43 53.93025 -4.30093 9665 ft 292 kts 304°
2026-04-20 21:43 53.94102 -4.33034 9140 ft 293 kts 294°
2026-04-20 21:43 53.94892 -4.36181 8813 ft 288 kts 291°
2026-04-20 21:44 53.95669 -4.39326 8368 ft 288 kts 292°
2026-04-20 21:44 53.96441 -4.42452 7983 ft 286 kts 292°
2026-04-20 21:44 53.97206 -4.45559 7574 ft 284 kts 291°
2026-04-20 21:44 53.97964 -4.48635 7082 ft 286 kts 291°
2026-04-20 21:45 53.98721 -4.51735 6738 ft 282 kts 290°
2026-04-20 21:45 53.99280 -4.54891 6302 ft 279 kts 281°
2026-04-20 21:45 53.99686 -4.58098 5890 ft 277 kts 279°
2026-04-20 21:45 54.00059 -4.61293 5503 ft 274 kts 279°
2026-04-20 21:46 54.00409 -4.64459 5095 ft 272 kts 279°
2026-04-20 21:46 54.00754 -4.67610 4769 ft 266 kts 279°
2026-04-20 21:46 54.01089 -4.70627 4642 ft 253 kts 279°
2026-04-20 21:46 54.01300 -4.72551 4549 ft 246 kts 278°
2026-04-20 21:47 54.01568 -4.74945 4370 ft 240 kts 279°
2026-04-20 21:47 54.01638 -4.75581 4322 ft 238 kts 279°
2026-04-20 21:47 54.01803 -4.76978 4100 ft 239 kts 279°
2026-04-20 21:47 54.01943 -4.78165 4060 ft 230 kts 281°
2026-04-20 21:48 54.02249 -4.80743 3778 ft 227 kts 280°
2026-04-20 21:48 54.02533 -4.83425 3317 ft 233 kts 279°
2026-04-20 21:48 54.03024 -4.86036 2897 ft 234 kts 304°
2026-04-20 21:48 54.04179 -4.87756 2908 ft 221 kts 340°
2026-04-20 21:49 54.05708 -4.88312 2433 ft 222 kts 18°
2026-04-20 21:49 54.06841 -4.87041 2824 ft 193 kts 64°
2026-04-20 21:49 54.07135 -4.84726 2657 ft 201 kts 104°
2026-04-20 21:49 54.06689 -4.82574 2654 ft 186 kts 105°
2026-04-20 21:50 54.06764 -4.80446 2607 ft 182 kts 76°
2026-04-20 21:50 54.07006 -4.78325 2244 ft 180 kts 85°
2026-04-20 21:50 54.07136 -4.76306 1901 ft 165 kts 90°
2026-04-20 21:50 54.07096 -4.74483 1679 ft 145 kts 93°
2026-04-20 21:51 54.07123 -4.72809 1333 ft 138 kts 87°
2026-04-20 21:51 54.07248 -4.71226 1012 ft 132 kts 83°
2026-04-20 21:51 54.07411 -4.69696 705 ft 130 kts 81°
2026-04-20 21:51 54.07593 -4.68202 535 ft 131 kts 78°
2026-04-20 21:52 54.07775 -4.66695 440 ft 128 kts 77°
2026-04-20 21:52 54.07972 -4.65199 299 ft 128 kts 75°
2026-04-20 21:52 54.08163 -4.63688 69 ft 129 kts 76°
2026-04-20 21:52 54.08330 -4.62342 49 ft 103 kts 77°
2026-04-20 21:53 54.08481 -4.60993 467 ft 124 kts 79°
2026-04-20 21:53 54.08641 -4.59470 1136 ft 140 kts 82°
2026-04-20 21:53 54.08801 -4.57730 1519 ft 159 kts 91°
2026-04-20 21:53 54.08535 -4.55783 1815 ft 184 kts 118°
2026-04-20 21:54 54.07531 -4.54291 2328 ft 204 kts 158°
2026-04-20 21:54 54.06081 -4.54293 2892 ft 222 kts 196°
2026-04-20 21:54 54.04900 -4.55920 2996 ft 229 kts 238°
2026-04-20 21:54 54.04601 -4.58562 3011 ft 235 kts 281°
2026-04-20 21:55 54.05371 -4.60941 3013 ft 231 kts 321°
2026-04-20 21:55 54.06709 -4.62434 3020 ft 230 kts 335°
2026-04-20 21:55 54.08146 -4.63615 3012 ft 230 kts 338°
2026-04-20 21:55 54.09593 -4.64765 3008 ft 230 kts 338°
2026-04-20 21:56 54.11043 -4.65900 3015 ft 229 kts 338°
2026-04-20 21:56 54.12491 -4.67025 3008 ft 229 kts 339°
2026-04-20 21:56 54.13905 -4.68280 3010 ft 232 kts 323°
2026-04-20 21:56 54.14856 -4.70494 3019 ft 235 kts 288°
2026-04-20 21:57 54.15109 -4.73229 3029 ft 233 kts 272°
2026-04-20 21:57 54.15156 -4.76025 3036 ft 244 kts 269°
2026-04-20 21:57 54.15161 -4.78971 3037 ft 249 kts 265°
2026-04-20 21:57 54.14718 -4.81799 3029 ft 248 kts 239°
2026-04-20 21:58 54.13624 -4.83989 3029 ft 241 kts 212°
2026-04-20 21:58 54.12122 -4.85138 3028 ft 235 kts 187°
2026-04-20 21:58 54.10523 -4.85118 2951 ft 227 kts 165°
2026-04-20 21:58 54.09006 -4.84559 2764 ft 218 kts 160°
2026-04-20 21:59 54.07747 -4.83376 2629 ft 200 kts 132°
2026-04-20 21:59 54.07022 -4.81474 2505 ft 188 kts 108°
2026-04-20 21:59 54.06884 -4.79320 2280 ft 178 kts 85°
2026-04-20 21:59 54.07049 -4.77318 2006 ft 164 kts 84°
2026-04-20 22:00 54.07203 -4.75455 1740 ft 155 kts 84°
2026-04-20 22:00 54.07341 -4.73745 1495 ft 141 kts 85°
2026-04-20 22:00 54.07366 -4.72120 1199 ft 131 kts 93°
2026-04-20 22:00 54.07378 -4.70587 1012 ft 129 kts 88°
2026-04-20 22:01 54.07480 -4.69081 808 ft 129 kts 82°
2026-04-20 22:01 54.07659 -4.67590 568 ft 130 kts 79°
2026-04-20 22:01 54.07854 -4.66088 412 ft 129 kts 77°
2026-04-20 22:01 54.08052 -4.64602 175 ft 129 kts 76°
2026-04-20 22:02 54.08233 -4.63133 49 ft 118 kts 77°
2026-04-20 22:02 54.08372 -4.62050 41 ft 55 kts 79°
2026-04-20 22:02 54.08400 -4.61805 42 ft 9 kts 79°
2026-04-20 22:02 54.08419 -4.61656 43 ft 17 kts 78°
2026-04-20 22:03 54.08469 -4.61439 41 ft 22 kts 26°
2026-04-20 22:03 54.08537 -4.61618 40 ft 26 kts 281°
2026-04-20 22:03 54.08544 -4.61987 46 ft 37 kts 258°
2026-04-20 22:03 54.08501 -4.62327 51 ft 24 kts 254°
2026-04-20 22:04 54.08461 -4.62620 44 ft 27 kts 256°
2026-04-20 22:04 54.08422 -4.62940 43 ft 22 kts 269°
2026-04-20 22:04 54.08524 -4.63019 45 ft 16 kts 348°
2026-04-20 22:04 54.08621 -4.63117 45 ft 17 kts 314°
2026-04-20 22:05 54.08615 -4.63193 44 ft 4 kts 227°
2026-04-20 22:05 54.08602 -4.63216 45 ft 0 kts 224°